Retour au catalogue

STARLINK-3884

ActifCommunicationsVLEO
NORAD 52497·PAYLOAD·🇺🇸 United States

Lancé May 6, 2022 depuis Cape Canaveral Space Force Station

Loading…

Prochains Passages (prochaines 24 heures)

TLE

FraisSource: CelesTrak SupGP

Époque: Sep 15, 2026, 01:55 UTC

1 52497C 22049AY  26258.08034722 -.00016294  00000+0 -49436-3 0  2583
2 52497  53.1583 269.3926 0001274  86.3824 247.0775 15.33561969    17

Suivez STARLINK-3884 en temps réel avec AllMySat

Download on the App Store